Weather Roundup
Issued by NWS Chicago, IL

Home | Current Version | Previous Version | Graphics & Text | Print | Product List | Glossary On
Versions: 1 2 3 4 5 6 7 8 9 10 11 12 13 14 15 16 17 18 19 20 21 22 23 24 25 26 27 28 29 30 31 32 33 34 35 36 37 38 39 40 41 42 43 44 45 46 47 48 49 50
000
NZUS59 KLOT 272204
HRRLOT

CHICAGO AREA WEATHER ROUNDUP
NATIONAL WEATHER SERVICE CHICAGO/ROMEOVILLE IL
500 PM CDT TUE JUN 27 2017

NOTE: "FAIR" INDICATES FEW OR NO CLOUDS BELOW 12,000 FEET WITH NO
SIGNIFICANT WEATHER AND/OR OBSTRUCTIONS TO VISIBILITY.

* THESE STATIONS ARE NOT UNDER NWS QUALITY CONTROL. THEY ALSO MAY NOT
  REPORT WEATHER SUCH AS PRECIPITATION OR FOG.

ILZ005-006-012>014-019>023-272300-
NORTHEAST ILLINOIS

CITY           SKY/WX    TMP DP  RH WIND       PRES   REMARKS
OHARE          PTSUNNY   77  44  30 W5        30.05F
MIDWAY         MOSUNNY   76  47  35 N5        30.05F
AURORA         SUNNY     76  44  32 SW12      30.07F
LANSING*       MOSUNNY   73  43  34 W5        30.06F
JOLIET*        PTSUNNY   77  46  33 SW5       30.06F
WAUKEGAN       MOSUNNY   69  50  50 SE10      30.05F
DUPAGE AIRPORT MOSUNNY   75  47  36 SW7       30.05F
WHEELING       MOSUNNY   75  47  36 S6        30.06F
MORRIS*        MOSUNNY   75  44  32 SW5       30.06S
LEWIS AIRPORT* SUNNY     74  41  29 NW5       30.06F
$$

WIZ051-052-058>065-066-070>072-272300-
SOUTHEAST WISCONSIN

CITY           SKY/WX    TMP DP  RH WIND       PRES   REMARKS
MILWAUKEE      MOSUNNY   74  46  36 W7G18     30.03F
KENOSHA*       SUNNY     74  49  41 NW5       30.05F
RACINE*        MOSUNNY   70  49  47 S13       30.06F
WAUKESHA       MOSUNNY   70  45  40 SW8       30.05F
$$

INZ001>003-010>013-019-020-272300-
NORTHWEST INDIANA

CITY           SKY/WX    TMP DP  RH WIND       PRES   REMARKS
GARY*          MOSUNNY   73  43  33 NE8       30.07F
MICHIGAN CITY* NOT AVBL
RENSSELAER*    NOT AVBL
VALPARAISO     MOSUNNY   74  45  35 CALM      30.08F
$$

LMZ740>746-272300-
SOUTHERN LAKE MICHIGAN

STATION/POSITION TIME  SKY/WX   TEMP WIND        PRES    VSBY
                                AIR  DIR/SP/G
                 (UTC)          (F)  (DEG/KT/KT) (MB)    (MI)
HARRISON CRIB    2140            67  120/ 12/ 13   N/A
BURNHAM HARBOR   2200            68                N/A
CALUMET HARBOR   2130            67   80/  8/ 12 1017.8F
BURNS HARBOR     2140            70   60/  9/ 13 1019.0F
MICHIGAN CITY    2140            67   40/  5/  6   N/A
$$

ABBREVIATIONS USED IN REMARKS
   TC - TEMPERATURE IN CELSIUS
  WCI - WIND CHILL INDEX
   HX - HEAT INDEX
  VSB - VISIBILITY
$$




USA.gov is the U.S. government's official web portal to all federal, state and local government web resources and services.